Orbital Elements at Epoch 2459000.5 (2020-May-31.0) TDB
Reference: JPL 17 (heliocentric ecliptic J2000)
Element | Value | Uncertainty (1-sigma) | Units |
e | .06997114228511887 | 3.551e-08 | |
a | 2.221573165262634 | 1.1305e-08 | au |
q | 2.066127153219241 | 7.824e-08 | au |
i | 6.443830975930681 | 3.8374e-06 | deg |
node | 224.6208902670537 | 3.7074e-05 | deg |
peri | 174.5532520739549 | 4.786e-05 | deg |
M | 123.744970053709 | 3.0814e-05 | deg |
tp | 2458584.767083234396 (2019-Apr-11.26708323) | 0.00010285 | TDB |
period | 1209.454008277336 3.31 | 9.2315e-06 2.527e-08 | d yr |
n | .297654972852386 | 2.2719e-09 | deg/d |
Q | 2.377019177306028 | 1.2096e-08 | au |
|
| | Orbit Determination Parameters
Additional Information
|